Weather History for Pontiac, IL

Change the Weather History Date:

Friday, February 15, 2013

  Actual Average Record
Temperature  
Mean Temperature 30 °F -  
Max Temperature 35 °F 36 °F 72 °F (1921)
Min Temperature 24 °F 21 °F -15 °F (1905)
Degree Days  
Heating Degree Days 36    
Moisture  
Dew Point 22 °F    
Average Humidity 70    
Maximum Humidity 93    
Minimum Humidity 48    
Precipitation  
Precipitation 0.00 in - - ()
Sea Level Pressure  
Sea Level Pressure 30.14 in    
Wind  
Wind Speed 12 mph (NW)    
Max Wind Speed 20 mph    
Max Gust Speed 23 mph    
Visibility 10 miles    
Events Snow    
Averages and records for this station are not official NWS values.
T = Trace of Precipitation, MM = Missing Value Source: NWS Daily Summary

Daily Weather History Graph

Daily Weather History Graph

Search for Another Location

Airport:

Trip Planner

Search our weather history database for the weather conditions in past years. The results will help you decide how hot, cold, wet, or windy it might be!

Date:

Astronomy

Feb. 15, 2013 Rise Set
Actual Time 6:48 AM CST 5:29 PM CST
Civil Twilight 6:20 AM CST 5:57 PM CST
Nautical Twilight 5:48 AM CST 6:29 PM CST
Astronomical Twilight 5:16 AM CST 7:01 PM CST
Moon 9:21 AM CST (2/15) 11:33 PM CST (2/15)
Length of Visible Light 11h 37m
Length of Day
10h 41m
Waxing Crescent, 30% of the Moon is Illuminated
Feb 15
Waxing Crescent
Feb 17
First Quarter
Feb 25
Full
Mar 4
Last Quarter
Mar 11
New

Hourly Weather History & Observations

Time (CST) Temp. Windchill Dew Point Humidity Pressure Visibility Wind Dir Wind Speed Gust Speed Precip Events Conditions
12:15 AM 35.6 °F 29.9 °F 32.0 °F 87% 30.00 in 10.0 mi West 6.9 mph - N/A   Overcast
12:35 AM 35.6 °F 29.9 °F 32.0 °F 87% 30.00 in 10.0 mi WNW 6.9 mph - N/A   Overcast
12:55 AM 35.6 °F 31.7 °F 32.0 °F 87% 30.00 in 10.0 mi West 4.6 mph - N/A   Overcast
1:15 AM 33.8 °F 27.7 °F 32.0 °F 93% 30.01 in 10.0 mi WNW 6.9 mph - N/A   Overcast
1:35 AM 33.8 °F 27.0 °F 32.0 °F 93% 30.01 in 10.0 mi WNW 8.1 mph - N/A   Overcast
1:55 AM 33.8 °F 27.0 °F 32.0 °F 93% 30.02 in 10.0 mi WNW 8.1 mph - N/A   Overcast
2:15 AM 33.8 °F 25.3 °F 30.2 °F 87% 30.02 in 10.0 mi WNW 11.5 mph - N/A   Overcast
2:35 AM 33.8 °F 25.8 °F 30.2 °F 87% 30.03 in 10.0 mi WNW 10.4 mph - N/A   Mostly Cloudy
2:55 AM 33.8 °F 25.3 °F 30.2 °F 87% 30.03 in 10.0 mi WNW 11.5 mph - N/A   Overcast
3:15 AM 33.8 °F 24.8 °F 30.2 °F 87% 30.03 in 10.0 mi WNW 12.7 mph - N/A   Overcast
3:35 AM 33.8 °F 23.5 °F 30.2 °F 87% 30.04 in 10.0 mi WNW 16.1 mph 20.7 mph N/A   Overcast
3:55 AM 33.8 °F 23.9 °F 28.4 °F 81% 30.04 in 10.0 mi NW 15.0 mph 20.7 mph N/A   Overcast
4:15 AM 32.0 °F 21.6 °F 28.4 °F 87% 30.05 in 10.0 mi WNW 15.0 mph 19.6 mph N/A   Overcast
4:35 AM 32.0 °F 22.1 °F 28.4 °F 87% 30.06 in 7.0 mi NW 13.8 mph - N/A Snow Light Snow
4:55 AM 32.0 °F 22.1 °F 28.4 °F 87% 30.07 in 10.0 mi NW 13.8 mph 19.6 mph N/A Snow Light Snow
5:15 AM 32.0 °F 22.1 °F 28.4 °F 87% 30.07 in 7.0 mi NW 13.8 mph - N/A Snow Light Snow
5:35 AM 32.0 °F 21.6 °F 28.4 °F 87% 30.07 in 10.0 mi NW 15.0 mph 19.6 mph N/A Snow Light Snow
5:55 AM 32.0 °F 21.6 °F 28.4 °F 87% 30.08 in 10.0 mi NW 15.0 mph 18.4 mph N/A Snow Light Snow
6:15 AM 32.0 °F 21.2 °F 26.6 °F 80% 30.09 in 10.0 mi NW 16.1 mph - N/A   Overcast
6:35 AM 32.0 °F 21.6 °F 26.6 °F 80% 30.10 in 10.0 mi NW 15.0 mph - N/A Snow Light Snow
6:55 AM 30.2 °F 19.3 °F 26.6 °F 86% 30.11 in 10.0 mi NNW 15.0 mph 20.7 mph N/A Snow Light Snow
7:15 AM 30.2 °F 19.8 °F 24.8 °F 80% 30.12 in 7.0 mi North 13.8 mph - N/A Snow Light Snow
7:35 AM 30.2 °F 18.5 °F 26.6 °F 86% 30.13 in 10.0 mi NNW 17.3 mph 21.9 mph N/A Snow Light Snow
7:55 AM 28.4 °F 16.6 °F 23.0 °F 80% 30.14 in 10.0 mi NNW 16.1 mph - N/A Snow Light Snow
8:15 AM 28.4 °F 15.4 °F 19.4 °F 69% 30.16 in 10.0 mi NW 19.6 mph - N/A   Overcast
8:35 AM 28.4 °F 15.4 °F 19.4 °F 69% 30.17 in 10.0 mi NW 19.6 mph - N/A   Scattered Clouds
8:55 AM 28.4 °F 16.6 °F 19.4 °F 69% 30.17 in 10.0 mi NW 16.1 mph - N/A   Clear
9:15 AM 28.4 °F 15.8 °F 19.4 °F 69% 30.18 in 10.0 mi NNW 18.4 mph - N/A   Clear
9:35 AM 28.4 °F 17.0 °F 19.4 °F 69% 30.19 in 10.0 mi NNW 15.0 mph - N/A   Clear
9:55 AM 28.4 °F 17.0 °F 19.4 °F 69% 30.19 in 10.0 mi NW 15.0 mph - N/A   Scattered Clouds
10:15 AM 28.4 °F 17.5 °F 17.6 °F 64% 30.19 in 10.0 mi NW 13.8 mph - N/A   Clear
10:35 AM 28.4 °F 17.0 °F 17.6 °F 64% 30.19 in 10.0 mi NNW 15.0 mph - N/A   Clear
10:55 AM 28.4 °F 18.0 °F 17.6 °F 64% 30.20 in 10.0 mi NNW 12.7 mph 18.4 mph N/A   Clear
11:15 AM 28.4 °F 18.5 °F 17.6 °F 64% 30.20 in 10.0 mi NW 11.5 mph - N/A   Clear
11:55 AM 30.2 °F 19.8 °F 17.6 °F 60% 30.20 in 10.0 mi NNW 13.8 mph - N/A   Clear
12:15 PM 32.0 °F 23.6 °F 17.6 °F 55% 30.20 in 10.0 mi NW 10.4 mph - N/A   Clear
12:35 PM 32.0 °F 24.2 °F 17.6 °F 55% 30.19 in 10.0 mi NNW 9.2 mph - N/A   Clear
12:55 PM 32.0 °F 22.5 °F 17.6 °F 55% 30.18 in 10.0 mi NW 12.7 mph 18.4 mph N/A   Clear
1:15 PM 33.8 °F 24.8 °F 17.6 °F 52% 30.18 in 10.0 mi NNW 12.7 mph - N/A   Clear
1:35 PM 33.8 °F 24.3 °F 17.6 °F 52% 30.17 in 10.0 mi NNW 13.8 mph - N/A   Clear
1:55 PM 33.8 °F 25.3 °F 19.4 °F 56% 30.17 in 10.0 mi WNW 11.5 mph - N/A   Clear
2:15 PM 33.8 °F 23.9 °F 19.4 °F 56% 30.17 in 10.0 mi NW 15.0 mph 20.7 mph N/A   Clear
2:35 PM 35.6 °F 27.5 °F 19.4 °F 52% 30.17 in 10.0 mi NW 11.5 mph 17.3 mph N/A   Clear
2:55 PM 33.8 °F 24.3 °F 17.6 °F 52% 30.17 in 10.0 mi NW 13.8 mph - N/A   Clear
3:15 PM 33.8 °F 25.8 °F 17.6 °F 52% 30.18 in 10.0 mi WNW 10.4 mph - N/A   Clear
3:35 PM 33.8 °F 26.4 °F 17.6 °F 52% 30.18 in 10.0 mi NW 9.2 mph 19.6 mph N/A   Clear
3:55 PM 33.8 °F 24.3 °F 15.8 °F 48% 30.18 in 10.0 mi WNW 13.8 mph 19.6 mph N/A   Clear
4:15 PM 33.8 °F 23.9 °F 15.8 °F 48% 30.18 in 10.0 mi WNW 15.0 mph 19.6 mph N/A   Clear
4:35 PM 33.8 °F 24.8 °F 15.8 °F 48% 30.18 in 10.0 mi WNW 12.7 mph - N/A   Clear
4:55 PM 33.8 °F 25.3 °F 17.6 °F 52% 30.18 in 10.0 mi WNW 11.5 mph - N/A   Mostly Cloudy
5:15 PM 32.0 °F 22.5 °F 17.6 °F 55% 30.18 in 10.0 mi West 12.7 mph - N/A   Mostly Cloudy
5:35 PM 32.0 °F 23.0 °F 17.6 °F 55% 30.18 in 10.0 mi WNW 11.5 mph - N/A   Mostly Cloudy
5:55 PM 32.0 °F 21.6 °F 19.4 °F 60% 30.19 in 10.0 mi WNW 15.0 mph - N/A   Overcast
6:15 PM 32.0 °F 21.2 °F 19.4 °F 60% 30.19 in 10.0 mi WNW 16.1 mph 23.0 mph N/A   Overcast
6:35 PM 30.2 °F 20.2 °F 17.6 °F 60% 30.19 in 10.0 mi NW 12.7 mph 21.9 mph N/A   Mostly Cloudy
6:55 PM 30.2 °F 20.2 °F 19.4 °F 64% 30.19 in 10.0 mi NW 12.7 mph - N/A   Scattered Clouds
7:15 PM 28.4 °F 17.5 °F 17.6 °F 64% 30.20 in 10.0 mi NW 13.8 mph 23.0 mph N/A   Clear
7:35 PM 28.4 °F 17.5 °F 17.6 °F 64% 30.20 in 10.0 mi NW 13.8 mph 18.4 mph N/A   Clear
7:55 PM 28.4 °F 17.0 °F 17.6 °F 64% 30.20 in 10.0 mi NW 15.0 mph 20.7 mph N/A   Clear
8:15 PM 26.6 °F 15.2 °F 19.4 °F 74% 30.20 in 10.0 mi NW 13.8 mph - N/A   Clear
8:35 PM 26.6 °F 15.2 °F 17.6 °F 69% 30.20 in 10.0 mi NW 13.8 mph 20.7 mph N/A   Clear
8:55 PM 26.6 °F 14.3 °F 17.6 °F 69% 30.20 in 10.0 mi NW 16.1 mph 20.7 mph N/A   Clear
9:15 PM 26.6 °F 15.2 °F 17.6 °F 69% 30.20 in 10.0 mi WNW 13.8 mph - N/A   Clear
9:35 PM 24.8 °F 13.4 °F 17.6 °F 74% 30.20 in 10.0 mi WNW 12.7 mph - N/A   Clear
9:55 PM 24.8 °F 11.9 °F 15.8 °F 69% 30.20 in 10.0 mi WNW 16.1 mph - N/A   Scattered Clouds
10:15 PM 24.8 °F 11.5 °F 15.8 °F 69% 30.19 in 10.0 mi WNW 17.3 mph - N/A   Scattered Clouds
10:35 PM 24.8 °F 13.4 °F 17.6 °F 74% 30.19 in 10.0 mi WNW 12.7 mph - N/A   Clear
10:55 PM 24.8 °F 12.9 °F 17.6 °F 74% 30.19 in 10.0 mi WNW 13.8 mph - N/A   Clear
11:15 PM 24.8 °F 12.9 °F 15.8 °F 69% 30.19 in 10.0 mi WNW 13.8 mph - N/A   Clear
11:35 PM 24.8 °F 13.4 °F 17.6 °F 74% 30.18 in 10.0 mi WNW 12.7 mph - N/A   Mostly Cloudy
11:55 PM 24.8 °F 11.5 °F 15.8 °F 69% 30.18 in 10.0 mi WNW 17.3 mph 23.0 mph N/A Snow Light Snow